Weather History for Harare Kutsaga, Zimbabwe

Change the Weather History Date:

Sunday, October 23, 2011

  Actual Average Record
Temperature  
Mean Temperature 77 °F -  
Max Temperature 92 °F 81 °F 91 °F (2011)
Min Temperature 62 °F 58 °F 52 °F (2014)
Cooling Degree Days 12    
Growing Degree Days 27 (Base 50)    
Moisture  
Dew Point 56 °F    
Average Humidity 48    
Maximum Humidity 83    
Minimum Humidity 19    
Precipitation  
Precipitation 0.00 in 0.11 in - ()
Sea Level Pressure  
Sea Level Pressure 30.08 in    
Wind  
Wind Speed 6 mph ()    
Max Wind Speed 13 mph    
Max Gust Speed -    
Visibility 12.0 miles    
Events      
Averages and records for this station are not official NWS values.
T = Trace of Precipitation, MM = Missing Value Source: Averaged Metar Reports

Daily Weather History Graph

Daily Weather History Graph

Search for Another Location

Airport:

Trip Planner

Search our weather history database for the weather conditions in past years. The results will help you decide how hot, cold, wet, or windy it might be!

Date:

Astronomy

Oct. 23, 2011 Rise Set
Actual Time 5:21 AM CAT 5:58 PM CAT
Civil Twilight 4:59 AM CAT 6:20 PM CAT
Nautical Twilight 4:33 AM CAT 6:46 PM CAT
Astronomical Twilight 4:06 AM CAT 7:13 PM CAT
Moon 2:20 AM CAT (10/23) 2:35 PM CAT (10/23)
Length of Visible Light 13h 21m
Length of Day
12h 36m
Waning Crescent, 17% of the Moon is Illuminated
Oct 23
Waning Crescent
Oct 26
New
Nov 2
First Quarter
Nov 10
Full
Nov 18
Last Quarter

Hourly Weather History & Observations

Time (CAT) Temp. Heat Index Dew Point Humidity Pressure Visibility Wind Dir Wind Speed Gust Speed Precip Events Conditions
12:00 AM 69.8 °F - 57.2 °F 64% 30.09 in - ENE 12.7 mph - N/A   Clear
1:00 AM 66.2 °F - 59.0 °F 78% 30.06 in - East 6.9 mph - N/A   Clear
2:00 AM 66 °F - 59 °F 72%  in 12 mi East 6.9 mph - -   Haze
2:00 AM 66.2 °F - 59.0 °F 78% 30.06 in - East 6.9 mph - N/A   Clear
3:00 AM 66.2 °F - 59.0 °F 78% 30.06 in - East 6.9 mph - N/A   Clear
4:00 AM 66.2 °F - 57.2 °F 73% 30.06 in - East 6.9 mph - N/A   Clear
5:00 AM 64.4 °F - 59.0 °F 83% 30.09 in - ENE 4.6 mph - N/A   Clear
6:00 AM 64.4 °F - 59.0 °F 83% 30.09 in - ENE 4.6 mph - N/A   Clear
8:00 AM 74 °F - 56 °F 44%  in 12 mi NE 10.4 mph - -   Haze
8:00 AM 73.4 °F - 57.2 °F 57% 30.12 in - NE 10.4 mph - N/A   Clear
9:00 AM 78.8 °F - 55.4 °F 44% 30.15 in - North 9.2 mph - N/A   Clear
10:00 AM 82.4 °F 81.4 °F 53.6 °F 37% 30.15 in - NE 9.2 mph - N/A   Clear
11:00 AM 86.0 °F 84.9 °F 57.2 °F 37% 30.12 in - ESE 2.3 mph - N/A   Clear
12:00 PM 86.0 °F 84.5 °F 55.4 °F 35% 30.09 in - SSW 2.3 mph - N/A   Clear
1:00 PM 89.6 °F 87.3 °F 53.6 °F 29% 30.06 in - North 2.3 mph - N/A   Clear
2:00 PM 91 °F - 54 °F 19%  in 12 mi SE 8.1 mph - -   Haze
2:00 PM 91.4 °F 89.1 °F 53.6 °F 28% 30.04 in - SE 8.1 mph - N/A   Clear
3:00 PM 91.4 °F 89.1 °F 53.6 °F 28% 30.01 in - ESE 2.3 mph - N/A   Clear
4:00 PM 91.4 °F - 51.8 °F 26% 30.01 in - ESE 8.1 mph - N/A   Clear
5:00 PM 89.6 °F - 51.8 °F 27% 30.04 in - SW 6.9 mph - N/A   Clear
6:00 PM 87.8 °F 86.1 °F 55.4 °F 33% 30.04 in - Calm Calm - N/A   Clear
7:00 PM 84.2 °F 83.0 °F 55.4 °F 37% 30.06 in - Calm Calm - N/A   Clear
8:00 PM 82 °F - 55 °F 28%  in 12 mi ESE 2.3 mph - -   Haze
8:00 PM 82.4 °F 81.7 °F 55.4 °F 39% 30.09 in - ESE 2.3 mph - N/A   Clear
9:00 PM 77.0 °F - 55.4 °F 47% 30.09 in - East 4.6 mph - N/A   Clear
10:00 PM 77.0 °F - 53.6 °F 44% 30.12 in - NE 4.6 mph - N/A   Clear
11:00 PM 73.4 °F - 55.4 °F 53% 30.12 in - ESE 4.6 mph - N/A   Clear